NOAA 17 DEB, 49485

Orbit data source: Space-Track

NOAA 17 DEB, 49485 is space debris in SSO originally from a launch on Mon, 24 Jun 2002 UTC launched from the Air Force Western Test Range (AFWTR). Debris objects in space refer to the collection of defunct objects orbiting the Earth. Examples of debris include non-operational satellites, rocket bodies, and fragments generated from explosions, collisions, or faulty payload assembly.

Loading next visibility...
Identifier
49485, 2002-032DP
Orbit
SSO
Country
Flag of USUS
Related business
Manufacturer
Unknown
Mission
Spacecraft
Bus & Motor
Unknown
Mass
Unknown
Launch date (UTC)
2002-06-24 (24 years ago)
Launch vehicle
Unknown
Launch site
Air Force Western Test Range (AFWTR)
Object type
Payload
Rocket body
Debris
Shape & HBR
Unknown shape, 0.1 m
Radar Cross Section
Small (<0.1 m²)

Expand to show TLE details & history
Last TLE update: 3 days ago

TLE from 3 days ago
0 NOAA 17 DEB
1 49485U 02032DP  26170.39928161  .00009204  00000-0  15411-2 0  9991
2 49485  98.8844 223.6805 0016055 311.1073  48.8743 14.69965045262904
Epoch: 2026-06-19T09:34Z
TLE epoch observation values (Epoch: 2026-06-19T09:34:57.931Z)
Latitude
-0.00004°
Longitude
172.31031°
Altitude
656.732 km
Speed
7.533 km/s
True Right ascension
14h 54m 43s
True Declination
0° 00' 00"
Sunlit
Object was in full shadow at epoch
Visualization orbit readout
Latitude
Unknown
Longitude
Unknown
Altitude
Unknown
Speed
Unknown
Apparent Right ascension
Unknown
Apparent Declination
Unknown
Sunlit
N/A
Visualization observer readout
Local Sidereal Time
21:40:23
Azimuth
Unknown
Elevation
Unknown
Doppler factor
Unknown
Orbital elements
Apogee altitude
669.577 km
Perigee altitude
646.984 km
Semi-major axis
7,036.417 km
Eccentricity
0.00161
Inclination
98.8844°
RAAN
223.6805°
Arg. of periapsis
311.1073°
True anomaly
49.01307°
Mean anomaly
48.8743°
Eccentric anomaly
48.94367°
Mean motion
3.67719 °/min
Orbital period
97.9 mins
BSTAR
0.0015411
Loading maneuver chart data...
Computing Atmospheric mass density...

Documentation

Showing up to 5 results
|